Vertical_Velocity
-1 -3 -1 -3 2 -5 -1 -3 -2 -4 -2 -2 -2 4 -2 -1 -2 -5 -5 10 -2 0 5 1 -0 2 4 -1 8 0 -7 -6 -8 -2 -9 1 -1 -1 3 2 -0 -5 -2 -1 4
-3 -3 -2 1 -2 -2 -5 -3 -1 -3 -2 -3 2 4 7 1 -2 -3 6 -5 10 4 2 -6 0 5 3 -2 9 6 2 -12 10 4 4 -0 6 -1 1 5 1 -1 0 2 1
-3 0 -1 -2 -0 -3 -2 -2 -2 -3 -4 -3 7 5 -0 2 -1 -1 -3 0 -5 4 6 -2 3 5 5 -0 -2 -3 -19 -0 10 7 1 -4 3 0 -3 2 2 -1 2 1 -1
-3 -2 -4 -1 -2 -2 -2 -3 -1 -4 -4 -1 3 3 6 1 -2 -1 -1 -1 0 -3 6 6 2 4 3 -2 3 -2 8 8 4 2 -7 -3 2 3 3 1 3 2 -0 1 -1
0 0 -2 -2 1 -7 -2 0 -3 -2 -4 -1 -1 -1 1 1 -3 0 -2 2 14 13 3 1 5 3 -1 0 3 8 -3 5 -0 -1 -4 -3 -2 1 7 2 2 3 3 -0 1
-0 -1 -1 1 1 -1 -3 -3 -3 -1 -3 -3 -1 -2 -0 2 -2 1 -1 11 0 8 2 -1 11 -1 4 -1 5 2 3 4 2 -7 -10 -7 -2 5 2 4 3 3 0 0 1
-0 0 -2 -2 -3 -2 -0 0 -2 -1 -2 -3 -2 -3 0 -1 -2 -0 -4 8 -4 -1 2 6 10 -3 -2 4 8 1 -6 -0 -0 -9 8 -17 -3 -26 17 -1 2 1 2 3 -2
-1 -1 -1 -2 -4 -3 2 3 0 2 2 -1 -1 -2 -2 -0 -0 -2 -1 -7 18 1 -5 7 -0 -0 -1 -0 8 -0 3 -0 -5 -6 -3 -7 -33 -7 11 -1 3 4 1 2 -2
-1 -0 1 1 -2 2 -2 1 -2 -1 2 3 2 -1 -1 -2 1 -2 3 0 1 6 -7 10 1 0 2 1 7 6 -1 2 1 5 1 -16 -11 -1 16 -11 3 3 2 3 -1
0 -1 1 1 -2 -1 -4 2 1 -0 2 1 3 0 -1 1 -3 3 -3 2 -3 1 13 9 11 6 0 1 -15 -1 2 6 -2 1 1 5 -5 -0 -13 -18 1 1 3 1 2
-1 1 -0 1 -0 -2 2 -1 -2 -2 -0 3 2 1 0 1 -0 -2 0 -6 3 3 -5 3 -9 -15 7 3 -1 2 -6 -4 1 -2 -3 -1 4 -23 -15 -21 -33 1 1 3 3
-2 -0 2 -4 2 1 1 -1 -2 -4 1 0 1 -1 -1 1 -1 -0 -1 -1 -3 -7 -1 9 7 8 1 5 -0 2 -3 1 1 2 5 1 0 -7 -4 1 -5 -11 2 2 -1
-1 -1 3 -2 2 4 -3 -2 1 -3 -4 -2 0 2 -1 -1 -0 1 1 -4 0 -4 0 2 -14 -11 0 5 -1 4 -3 -5 -7 -3 -1 1 -5 -2 -9 -3 -10 -22 1 -2 -1
-3 -2 2 1 3 -2 -1 1 0 -1 -3 -1 -2 1 -5 0 -1 11 7 2 5 15 2 2 13 2 1 3 -3 -4 -1 4 0 -1 -7 -0 -6 -8 5 -5 -4 -11 -20 2 1
-2 0 0 1 -3 -0 1 2 1 -5 -6 9 -1 -2 -3 -2 1 3 -5 -2 2 -1 -4 3 -16 -2 3 -5 1 -4 0 4 1 5 2 5 1 -13 4 -11 -13 3 1 -6 -1
-1 1 1 2 -2 0 1 -1 -1 -4 -5 5 -5 1 -1 -2 -0 2 3 3 -1 -1 -2 -1 -3 6 -0 4 -4 -0 -3 2 6 1 2 -1 -0 -10 -2 -4 7 2 -9 -28 -3
-0 1 0 -1 1 1 -1 -1 0 -4 -2 4 1 1 4 -2 -2 1 2 3 2 -4 1 3 -3 1 1 -2 12 3 4 0 0 2 -4 -1 8 -32 -6 -2 4 2 3 -3 -12
0 -0 -1 1 0 -1 -1 1 -3 1 -3 -0 -3 4 -2 1 -3 -0 -1 2 -1 1 -1 -2 7 7 -7 3 -3 3 1 -6 -4 -1 -2 2 -4 -23 -2 2 4 4 8 4 -4
1 -1 -1 1 -0 -2 -2 1 0 -1 1 -2 1 1 8 10 2 4 4 -1 1 2 -1 1 1 10 1 3 3 -1 4 -0 -4 0 -1 2 -0 -13 -0 -1 2 3 4 5 1
1 -1 -1 1 -1 -2 -1 0 -1 1 -3 1 -2 -1 1 -2 -4 -4 -4 4 -10 -0 -3 2 -2 3 3 2 3 -1 0 -1 -1 -3 -0 -2 -3 -7 9 3 -1 -4 -3 3 2
0 -1 -2 -1 -2 -3 -0 1 -0 -1 1 -1 0 -1 1 1 3 -2 -8 -1 7 4 2 1 -0 4 2 3 -6 -5 -2 -0 -2 -0 -2 -1 -5 0 -1 0 -2 4 -1 -1 4
-1 0 0 0 -1 -1 0 2 -1 -1 -1 -4 3 1 -2 3 0 1 -5 1 4 7 1 -9 -2 -1 2 -2 -0 1 2 6 2 -2 0 -0 -21 1 1 2 -3 -6 5 2 -0
0 3 1 0 -2 0 -0 -1 -0 -3 1 5 -1 -1 4 5 1 2 -0 -5 -2 0 4 0 3 -2 0 1 -5 -3 -4 -3 -1 -0 -4 -0 -8 0 7 3 -2 -7 1 -3 -3
1 1 0 -0 -1 1 -1 0 -1 1 -0 1 -2 1 -3 -5 3 3 2 2 -1 1 2 4 -1 -1 -10 -3 -0 -6 -4 -2 1 4 -5 -13 -12 -17 -3 -5 -1 5 2 6 -0
1 1 -0 0 -1 2 1 2 1 1 0 1 2 -1 -3 -1 -1 3 3 -0 -1 -4 -3 1 -1 1 3 3 2 -0 -2 2 -2 4 -9 1 -8 -12 1 4 -4 -7 3 -2 -1
-1 1 -0 1 1 0 1 0 2 -0 0 -2 2 2 4 -3 -5 0 4 4 3 1 -1 -2 2 1 0 0 -1 -3 -4 -1 -0 -0 -3 1 -47 13 7 -1 -3 -0 -0 -1 2
-2 -1 2 -0 -3 -2 1 0 -3 2 -1 1 -0 1 -1 5 3 -4 -1 3 2 -0 -2 -1 -3 -1 -0 2 2 -8 -4 0 4 1 10 -9 -11 -2 -3 5 5 4 0 -2 -2
Height
3089 3086 3082 3078 3073 3069 3063 3057 3052 3049 3045 3043 3042 3042 3042 3042 3045 3047 3050 3056 3060 3066 3071 3076 3083 3089 3096 3102 3108 3113 3120 3122 3127 3134 3138 3142 3146 3149 3153 3156 3159 3162 3165 3168 3172
3085 3083 3078 3074 3069 3065 3060 3053 3048 3045 3041 3039 3037 3038 3037 3040 3042 3043 3047 3050 3054 3062 3067 3072 3079 3085 3090 3096 3103 3108 3112 3117 3125 3132 3135 3138 3144 3147 3152 3153 3156 3159 3162 3165 3169
3083 3079 3075 3070 3066 3061 3056 3050 3045 3041 3038 3036 3035 3034 3034 3036 3039 3040 3041 3044 3050 3055 3063 3069 3075 3081 3086 3092 3098 3103 3106 3115 3123 3128 3132 3136 3141 3145 3148 3151 3153 3156 3159 3162 3166
3079 3075 3071 3067 3063 3058 3053 3048 3043 3039 3036 3034 3033 3033 3033 3035 3038 3036 3038 3042 3046 3053 3060 3066 3071 3076 3081 3089 3095 3101 3105 3112 3118 3123 3128 3134 3139 3142 3146 3149 3150 3153 3157 3160 3164
3076 3072 3069 3063 3059 3055 3050 3045 3041 3038 3035 3033 3032 3031 3031 3033 3034 3034 3035 3039 3043 3048 3056 3063 3069 3073 3079 3086 3093 3097 3102 3110 3115 3118 3125 3131 3134 3140 3143 3145 3148 3151 3154 3158 3161
3073 3069 3065 3060 3056 3052 3048 3044 3041 3038 3035 3034 3033 3032 3032 3033 3032 3033 3034 3037 3040 3045 3053 3061 3066 3072 3080 3085 3091 3094 3100 3107 3112 3115 3121 3127 3129 3136 3139 3141 3144 3147 3152 3156 3158
3069 3066 3062 3057 3054 3049 3045 3042 3039 3036 3036 3035 3034 3033 3032 3033 3032 3033 3034 3034 3037 3043 3051 3059 3065 3071 3077 3084 3089 3092 3100 3106 3108 3114 3117 3123 3124 3128 3138 3139 3141 3145 3148 3153 3156
3066 3063 3059 3055 3051 3046 3043 3040 3039 3037 3035 3034 3034 3033 3032 3032 3031 3032 3033 3033 3037 3041 3050 3059 3064 3070 3077 3082 3088 3092 3098 3101 3104 3109 3114 3119 3117 3126 3132 3135 3138 3141 3144 3149 3153
3063 3059 3056 3053 3049 3044 3041 3039 3037 3035 3034 3033 3033 3032 3032 3031 3032 3032 3032 3033 3034 3041 3050 3055 3062 3068 3076 3080 3085 3088 3091 3096 3101 3106 3110 3115 3115 3122 3126 3131 3135 3138 3141 3145 3149
3060 3056 3053 3050 3047 3042 3039 3037 3036 3034 3033 3032 3031 3033 3031 3031 3030 3032 3032 3032 3034 3040 3047 3054 3058 3065 3071 3076 3074 3079 3088 3095 3098 3104 3106 3110 3112 3116 3120 3128 3131 3135 3137 3141 3144
3059 3054 3051 3048 3045 3041 3037 3035 3038 3036 3031 3031 3030 3030 3030 3030 3029 3030 3030 3031 3035 3039 3043 3051 3058 3061 3067 3075 3079 3084 3089 3095 3100 3104 3108 3109 3113 3114 3119 3122 3125 3129 3132 3137 3140
3057 3052 3049 3046 3043 3040 3036 3035 3034 3035 3032 3030 3028 3028 3028 3028 3028 3027 3029 3032 3034 3038 3044 3053 3054 3062 3070 3077 3081 3084 3090 3095 3100 3104 3107 3109 3110 3111 3113 3115 3118 3123 3126 3132 3134
3056 3050 3046 3044 3042 3039 3036 3034 3032 3032 3032 3031 3029 3028 3027 3028 3028 3026 3029 3030 3035 3039 3044 3053 3055 3061 3069 3075 3080 3085 3089 3093 3099 3103 3107 3108 3107 3106 3106 3109 3111 3118 3121 3126 3128
3054 3049 3045 3043 3043 3038 3035 3032 3030 3030 3031 3033 3030 3029 3029 3028 3029 3028 3028 3033 3036 3041 3048 3055 3056 3059 3067 3075 3081 3085 3089 3094 3098 3100 3103 3106 3102 3098 3101 3103 3104 3108 3117 3120 3122
3052 3048 3044 3042 3040 3038 3036 3031 3031 3032 3034 3034 3031 3030 3028 3030 3031 3031 3032 3035 3037 3042 3050 3055 3059 3060 3068 3076 3082 3085 3089 3093 3097 3100 3102 3102 3105 3092 3095 3095 3096 3101 3110 3117 3119
3051 3047 3043 3042 3039 3038 3033 3032 3032 3034 3034 3034 3034 3031 3030 3030 3031 3033 3035 3039 3043 3046 3051 3054 3059 3063 3070 3077 3081 3085 3089 3094 3097 3099 3098 3097 3101 3086 3088 3090 3096 3102 3106 3107 3112
3049 3045 3042 3041 3040 3036 3034 3032 3033 3032 3039 3037 3035 3033 3032 3033 3034 3035 3037 3042 3047 3051 3053 3057 3062 3064 3069 3076 3080 3083 3087 3094 3099 3099 3096 3093 3096 3090 3090 3091 3094 3098 3100 3103 3107
3047 3045 3042 3040 3039 3037 3036 3035 3035 3039 3039 3039 3038 3035 3036 3036 3039 3039 3041 3044 3048 3050 3053 3057 3066 3065 3069 3073 3077 3082 3085 3085 3090 3093 3092 3093 3092 3087 3087 3088 3090 3093 3094 3096 3100
3046 3044 3041 3040 3039 3037 3037 3036 3038 3039 3040 3040 3040 3039 3039 3040 3040 3041 3043 3046 3048 3051 3054 3057 3061 3064 3070 3074 3079 3081 3083 3086 3086 3090 3091 3087 3087 3087 3086 3088 3087 3087 3088 3091 3093
3045 3043 3041 3039 3038 3037 3038 3038 3039 3039 3040 3040 3041 3041 3041 3042 3044 3044 3046 3047 3049 3049 3050 3055 3061 3065 3069 3074 3078 3079 3084 3086 3086 3091 3092 3086 3085 3082 3085 3086 3084 3082 3082 3084 3087
3043 3041 3040 3038 3038 3038 3037 3038 3039 3040 3041 3041 3040 3041 3043 3044 3044 3046 3048 3048 3048 3050 3054 3056 3060 3067 3071 3073 3075 3079 3080 3083 3085 3086 3085 3088 3083 3081 3082 3081 3079 3077 3077 3079 3083
3043 3040 3039 3038 3039 3037 3038 3038 3039 3040 3041 3041 3042 3043 3043 3044 3045 3045 3046 3047 3049 3053 3056 3057 3060 3066 3069 3071 3073 3075 3077 3080 3081 3083 3083 3084 3081 3080 3080 3081 3079 3078 3076 3077 3080
3042 3039 3038 3037 3037 3037 3038 3038 3039 3040 3042 3043 3044 3045 3045 3045 3046 3046 3046 3047 3049 3053 3057 3059 3062 3066 3070 3073 3070 3071 3073 3076 3079 3079 3076 3080 3075 3074 3076 3077 3078 3079 3079 3078 3079
3041 3038 3037 3035 3035 3037 3038 3038 3038 3039 3042 3045 3045 3045 3046 3046 3045 3045 3046 3048 3051 3054 3056 3058 3059 3060 3062 3061 3063 3065 3067 3071 3074 3073 3072 3063 3069 3073 3073 3073 3075 3076 3078 3078 3079
3040 3038 3036 3034 3034 3036 3037 3038 3039 3040 3041 3040 3041 3044 3044 3047 3048 3046 3047 3048 3050 3053 3055 3057 3056 3058 3059 3060 3060 3062 3063 3064 3063 3066 3065 3063 3061 3065 3069 3070 3070 3071 3073 3075 3076
3038 3036 3033 3033 3033 3035 3035 3037 3039 3040 3040 3040 3041 3042 3045 3045 3048 3048 3048 3049 3050 3051 3053 3055 3057 3056 3056 3056 3057 3057 3058 3058 3058 3060 3056 3058 3048 3060 3062 3062 3064 3066 3068 3069 3072
3037 3034 3031 3030 3031 3033 3034 3035 3037 3038 3039 3040 3042 3043 3044 3045 3045 3047 3048 3049 3049 3050 3051 3053 3054 3055 3054 3053 3053 3053 3050 3051 3051 3050 3051 3050 3045 3053 3054 3055 3057 3059 3061 3062 3065